Weather History for KMBG - March, 2012

Change the Weather History Date:

Thursday, March 1, 2012

  Actual Average Record
Temperature  
Mean Temperature 25 °F 25 °F  
Max Temperature 36 °F 36 °F 71 °F (1992)
Min Temperature 13 °F 15 °F -26 °F (1919)
Degree Days  
Heating Degree Days 40 40  
Month to date heating degree days 40 40  
Since 1 July heating degree days 5329 6015  
Cooling Degree Days 0 0  
Month to date cooling degree days 0 0  
Year to date cooling degree days 0 0  
Moisture  
Dew Point 17 °F    
Average Humidity 82    
Maximum Humidity 100    
Minimum Humidity 64    
Precipitation  
Precipitation 0.00 in 0.02 in 0.35 in (2004)
Month to date precipitation 0.00 0.02  
Year to date precipitation 1.35 0.75  
Snow  
Snow 0.00 in - - ()
Month to date snowfall 0.0  
Since 1 July snowfall 16.0  
Snow Depth 6.00 in    
Sea Level Pressure  
Sea Level Pressure 29.67 in    
Wind  
Wind Speed 6 mph (SSE)    
Max Wind Speed 18 mph    
Max Gust Speed 22 mph    
Visibility 5 miles    
Events Fog    
T = Trace of Precipitation, MM = Missing Value Source: NWS Daily Summary

Daily Weather History Graph

Daily Weather History Graph

Search for Another Location

Airport or City:

Trip Planner

Search our weather history database for the weather conditions in past years. The results will help you decide how hot, cold, wet, or windy it might be!

Date:

Astronomy

Mar. 01, 2012 Rise Set
Actual Time 7:19 AM CST 6:29 PM CST
Civil Twilight 6:49 AM CST 6:59 PM CST
Nautical Twilight 6:15 AM CST 7:33 PM CST
Astronomical Twilight 5:40 AM CST 8:07 PM CST
Moon 11:36 AM CST (3/1) 2:33 AM CST (3/1)
Length of Visible Light 12h 09m
Length of Day
11h 10m
First Quarter, 57% of the Moon is Illuminated
Mar 1
First Quarter
Mar 8
Full
Mar 14
Last Quarter
Mar 22
New
Mar 30
First Quarter

Hourly Weather History & Observations

Time (CST) Temp. Windchill Dew Point Humidity Pressure Visibility Wind Dir Wind Speed Gust Speed Precip Events Conditions
12:26 AM 14.0 °F 3.9 °F 12.2 °F 93% 29.70 in 3.0 mi SE 6.9 mph - N/A   Partly Cloudy
12:36 AM 15.8 °F 8.6 °F 14.0 °F 93% 29.70 in 3.0 mi East 4.6 mph - N/A   Mostly Cloudy
12:52 AM 14.0 °F 6.5 °F 12.0 °F 92% 29.77 in 3.0 mi ESE 4.6 mph - N/A   Overcast
1:52 AM 12.9 °F 3.8 °F 10.9 °F 92% 29.77 in 4.0 mi East 5.8 mph - N/A   Overcast
2:01 AM 12.2 °F 1.7 °F 10.4 °F 92% 29.68 in 1.8 mi East 6.9 mph - N/A   Overcast
2:14 AM 14.0 °F 3.9 °F 12.2 °F 93% 29.67 in 0.8 mi East 6.9 mph - N/A   Overcast
2:52 AM 12.9 °F 1.6 °F 12.0 °F 96% 29.75 in 0.5 mi ESE 8.1 mph - N/A Fog Light Freezing Fog
3:52 AM 16.0 °F 7.4 °F 15.1 °F 96% 29.71 in 0.8 mi East 5.8 mph - N/A   Mist
4:01 AM 15.8 °F 7.2 °F 15.8 °F 100% 29.63 in 1.5 mi East 5.8 mph - N/A   Overcast
4:52 AM 15.1 °F 4.2 °F 14.0 °F 95% 29.67 in 1.2 mi ESE 8.1 mph - N/A   Overcast
5:05 AM 15.8 °F 6.1 °F 14.0 °F 93% 29.59 in 3.0 mi ESE 6.9 mph - N/A   Overcast
5:52 AM 16.0 °F 7.4 °F 14.0 °F 92% 29.67 in 2.5 mi SE 5.8 mph - N/A   Overcast
6:00 AM 15.8 °F 7.2 °F 14.0 °F 93% 29.60 in 3.0 mi SE 5.8 mph - N/A   Overcast
6:05 AM 15.8 °F 6.1 °F 14.0 °F 93% 29.60 in 1.5 mi SSE 6.9 mph - N/A   Overcast
6:14 AM 15.8 °F 7.2 °F 15.8 °F 100% 29.59 in 0.5 mi SSE 5.8 mph - N/A Fog Light Freezing Fog
6:33 AM 15.8 °F 7.2 °F 14.0 °F 93% 29.59 in 2.0 mi SE 5.8 mph - N/A   Overcast
6:44 AM 15.8 °F 6.1 °F 14.0 °F 93% 29.58 in 4.0 mi ESE 6.9 mph - N/A   Overcast
6:52 AM 15.1 °F 5.2 °F 14.0 °F 95% 29.67 in 6.0 mi SE 6.9 mph - N/A   Overcast
7:52 AM 16.0 °F 8.8 °F 14.0 °F 92% 29.71 in 4.0 mi South 4.6 mph - N/A   Overcast
8:21 AM 17.6 °F 10.7 °F 15.8 °F 93% 29.63 in 2.5 mi South 4.6 mph - N/A   Overcast
8:31 AM 17.6 °F 9.3 °F 15.8 °F 93% 29.63 in 1.5 mi South 5.8 mph - N/A   Overcast
8:52 AM 17.1 °F 11.7 °F 16.0 °F 96% 29.72 in 0.8 mi SSE 3.5 mph - N/A   Overcast
9:08 AM 17.6 °F 12.3 °F 15.8 °F 93% 29.62 in 1.0 mi SSE 3.5 mph - N/A   Overcast
9:29 AM 17.6 °F 10.7 °F 17.6 °F 100% 29.62 in 0.8 mi SSE 4.6 mph - N/A   Overcast
9:52 AM 19.0 °F 10.0 °F 18.0 °F 96% 29.71 in 0.5 mi SSE 6.9 mph - N/A Fog Light Freezing Fog
10:21 AM 19.4 °F 12.8 °F 19.4 °F 100% 29.62 in 1.2 mi South 4.6 mph - N/A   Overcast
10:34 AM 19.4 °F 14.3 °F 17.6 °F 93% 29.62 in 2.5 mi South 3.5 mph - N/A   Overcast
10:43 AM 21.2 °F 16.4 °F 21.2 °F 100% 29.62 in 4.0 mi South 3.5 mph - N/A   Overcast
10:52 AM 21.0 °F 16.2 °F 21.0 °F 100% 29.71 in 5.0 mi South 3.5 mph - N/A   Overcast
11:52 AM 24.1 °F - 23.0 °F 96% 29.70 in 7.0 mi Calm Calm - N/A   Partly Cloudy
12:52 PM 30.9 °F 26.2 °F 26.1 °F 82% 29.67 in 10.0 mi West 4.6 mph - N/A   Clear
1:52 PM 35.1 °F 27.9 °F 27.0 °F 72% 29.66 in 10.0 mi NW 9.2 mph - N/A   Clear
2:52 PM 36.0 °F 27.5 °F 27.0 °F 70% 29.66 in 10.0 mi WNW 12.7 mph - N/A   Clear
3:52 PM 36.0 °F 28.0 °F 26.1 °F 67% 29.66 in 10.0 mi West 11.5 mph - N/A   Clear
4:52 PM 36.0 °F 29.0 °F 25.0 °F 64% 29.68 in 10.0 mi West 9.2 mph - N/A   Clear
5:52 PM 34.0 °F 28.8 °F 24.1 °F 67% 29.70 in 10.0 mi WSW 5.8 mph - N/A   Clear
6:52 PM 30.9 °F 26.2 °F 21.9 °F 69% 29.73 in 10.0 mi WSW 4.6 mph - N/A   Clear
7:52 PM 27.0 °F - 19.9 °F 75% 29.73 in 10.0 mi Calm Calm - N/A   Clear
8:52 PM 28.9 °F 21.9 °F 19.0 °F 67% 29.74 in 10.0 mi West 6.9 mph - N/A   Clear
9:52 PM 24.1 °F - 18.0 °F 77% 29.75 in 10.0 mi Calm Calm - N/A   Clear
10:52 PM 24.1 °F - 16.0 °F 71% 29.76 in 10.0 mi Calm Calm - N/A   Clear
11:52 PM 24.1 °F 18.2 °F 16.0 °F 71% 29.75 in 10.0 mi WNW 4.6 mph - N/A   Clear